Back to catalog

CZ-4 DEB

AliveSSO
NORAD 35567·DEBRIS·🇨🇳 China

Launched Sep 19, 2007 from Taiyuan Satellite Launch Center

Loading…

Next Passes (next 24 hours)

TLE

AgingSource: Space-Track

Epoch: Sep 6, 2026, 14:23 UTC

1 35567U 07042G   26249.59964990  .00000424  00000-0  22420-3 0  9996
2 35567  98.8856 208.9546 0014275 321.2455  38.7696 14.19074563674339

Track CZ-4 DEB in real time with AllMySat

Download on the App Store